STARLINK-30966, 58454

Orbit data source: Space-Track

STARLINK-30966, 58454 is a payload satellite owned by SpaceX/Seattle (US) in LEO that was launched on Tue, 28 Nov 2023 UTC via an FALCON 9 launch vehicle from the Air Force Eastern Test Range (AFETR). Payload-class satellites include a variety of spacecraft equipped with specific instruments for various scientific and technological missions. These include communications satellites like Starlink; space stations such as the ISS; scientific satellites like the Hubble; Earth observation satellites from companies like Planet Labs, Umbra, and HawkEye 360; GPS; miniature CubeSats for education and research; and military/defense satellites.

Loading next visibility...
Identifier
58454, 2023-183T
Orbit
LEO
Country
Flag of USUS
Related business
Manufacturer
SpaceX/Seattle
Mission
Operational Commercial Communications
Bus & Motor
STARLINK V2M, Unknown motor
Mass
730 kg wet, ~700 kg dry
Launch date (UTC)
2023-11-28 (3 years ago)
Launch vehicle
FALCON 9
Launch site
Air Force Eastern Test Range (AFETR)
Object type
Payload
Rocket body
Debris
Shape & HBR
Box + 2 Pan, 17.7 m
Radar Cross Section
33.884 m², Large (>1 m²)

Expand to show TLE details & history
Last TLE update: 2 days ago

TLE from 2 days ago
0 STARLINK-30966
1 58454U 23183T   26171.33416993  .00002243  00000-0  91035-4 0  9991
2 58454  43.0011 181.8342 0001777 263.5102  96.5547 15.27574841142439
Epoch: 2026-06-20T08:01Z
TLE epoch observation values (Epoch: 2026-06-20T08:01:12.281Z)
Latitude
-0.00006°
Longitude
152.98268°
Altitude
482.979 km
Speed
7.626 km/s
True Right ascension
12h 07m 20s
True Declination
0° 00' 00"
Sunlit
Object was in daylight at epoch
Visualization orbit readout
Latitude
Unknown
Longitude
Unknown
Altitude
Unknown
Speed
Unknown
Apparent Right ascension
Unknown
Apparent Declination
Unknown
Sunlit
N/A
Visualization observer readout
Local Sidereal Time
21:31:16
Azimuth
Unknown
Elevation
Unknown
Doppler factor
Unknown
Orbital elements
Apogee altitude
486.229 km
Perigee altitude
483.79 km
Semi-major axis
6,863.147 km
Eccentricity
0.00018
Inclination
43.0011°
RAAN
181.8342°
Arg. of periapsis
263.5102°
True anomaly
96.57493°
Mean anomaly
96.5547°
Eccentric anomaly
96.56481°
Mean motion
3.81732 °/min
Orbital period
94.31 mins
BSTAR
0.000091035
Loading maneuver chart data...
Computing Atmospheric mass density...
Loading historical data...
Loading historical data...
Loading historical data...
Loading historical data...
Loading historical data...
Loading historical data...
Loading historical data...

Documentation

Showing up to 5 results
|